This demonstration page uses our WeatherBlox Daily Observations layout. Learn more.

41.55636, -103.73856

Hourly Observations for November 7, 2015

Temp ( °F °C ) Dew Point ( °F °C ) Humidity (%) Winds ( mph kmh ) Pressure ( in mb ) Visibility ( mi km ) Precip ( " mm )
12:53 am 00:53 Clear 25 -3.9 22 -5.6 88 88 Calm 30.4 1029 10 16.0934 0 0
1:53 am 01:53 Clear 23 -5 20 -6.7 88 88 Calm 30.4 1030 10 16.0934 0 0
2:53 am 02:53 Clear 21 -6.1 18 -7.8 88 88 NNE 3 6 30.41 1030 10 16.0934 0 0
3:53 am 03:53 Clear 21 -6.1 18 -7.8 88 88 NNE 5 7 30.41 1030 10 16.0934 0 0
4:53 am 04:53 Clear 23 -5 18 -7.8 81 81 N 3 6 30.41 1030 10 16.0934 0 0
5:53 am 05:53 Clear 23 -5 18 -7.8 81 81 N 5 7 30.42 1030 10 16.0934 0 0
6:53 am 06:53 Sunny 20 -6.7 17 -8.3 89 89 Calm 30.45 1031 10 16.0934 0 0
7:53 am 07:53 Sunny 27 -2.8 23 -5 85 85 E 3 6 30.45 1031 10 16.0934 0 0
8:53 am 08:53 Sunny 34 1.1 27 -2.8 76 76 Calm 30.42 1030 10 16.0934 0 0
9:53 am 09:53 Sunny 44 6.7 25 -3.9 47 47 Calm 30.39 1029 10 16.0934 0 0
10:53 am 10:53 Sunny 49 9.4 17 -8.3 28 28 WSW 12 19 30.35 1028 10 16.0934 0 0
11:53 am 11:53 Sunny 52 11.1 17 -8.3 25 25 WSW 9 15 30.32 1027 10 16.0934 0 0
12:53 pm 12:53 Sunny 53 11.7 17 -8.3 24 24 SSW 6 9 30.28 1025 10 16.0934 0 0
1:53 pm 13:53 Sunny 56 13.3 16 -8.9 21 21 SSW 7 11 30.25 1024 10 16.0934 0 0
2:53 pm 14:53 Sunny 56 13.3 16 -8.9 21 21 S 9 15 30.23 1024 10 16.0934 0 0
3:53 pm 15:53 Sunny 54 12.2 20 -6.7 26 26 S 6 9 30.23 1024 10 16.0934 0 0
4:53 pm 16:53 Clear 46 7.8 21 -6.1 37 37 S 6 9 30.24 1024 10 16.0934 0 0
5:53 pm 17:53 Clear 38 3.3 23 -5 55 55 SE 7 11 30.26 1025 10 16.0934 0 0
6:53 pm 18:53 Clear 40 4.4 22 -5.6 49 49 SSE 7 11 30.26 1025 10 16.0934 0 0
7:53 pm 19:53 Clear 35 1.7 22 -5.6 59 59 Calm 30.25 1024 10 16.0934 0 0
8:53 pm 20:53 Clear 41 5 20 -6.7 43 43 SSW 8 13 30.19 1023 10 16.0934 0 0
9:53 pm 21:53 Clear 32 0 21 -6.1 64 64 SE 8 13 30.17 1022 10 16.0934 0 0
10:53 pm 22:53 Clear 29 -1.7 21 -6.1 72 72 E 7 11 30.15 1021 10 16.0934 0 0
11:53 pm 23:53 Clear 28 -2.2 20 -6.7 72 72 NE 6 9 30.13 1020 10 16.0934 0 0

Powered by AerisWeather